TimeMDT,TemperatureF,Dew PointF,Humidity,Sea Level PressureIn,VisibilityMPH,Wind Direction,Wind SpeedMPH,Gust SpeedMPH,PrecipitationIn,Events,Conditions,WindDirDegrees,DateUTC
12:12 AM,37.4,23.0,56,30.73,-9999.0,West,6.9,-,N/A,,Clear,280,2013-05-13 06:12:00
12:32 AM,39.2,23.0,52,30.73,-9999.0,West,5.8,-,N/A,,Clear,280,2013-05-13 06:32:00
12:52 AM,37.4,23.0,56,30.73,-9999.0,SW,6.9,-,N/A,,Clear,230,2013-05-13 06:52:00
1:12 AM,39.2,23.0,52,30.72,-9999.0,WSW,5.8,-,N/A,,Clear,250,2013-05-13 07:12:00
1:32 AM,37.4,23.0,56,30.72,-9999.0,West,11.5,-,N/A,,Clear,270,2013-05-13 07:32:00
1:52 AM,37.4,23.0,56,30.72,-9999.0,WSW,8.1,-,N/A,,Clear,250,2013-05-13 07:52:00
2:12 AM,37.4,23.0,56,30.72,-9999.0,NW,10.4,-,N/A,,Clear,310,2013-05-13 08:12:00
2:32 AM,37.4,23.0,56,30.71,-9999.0,West,10.4,-,N/A,,Clear,280,2013-05-13 08:32:00
2:52 AM,37.4,23.0,56,30.71,-9999.0,West,10.4,-,N/A,,Clear,270,2013-05-13 08:52:00
3:12 AM,37.4,23.0,56,30.71,-9999.0,West,11.5,-,N/A,,Clear,270,2013-05-13 09:12:00
3:32 AM,37.4,23.0,56,30.71,-9999.0,West,10.4,16.1,N/A,,Clear,270,2013-05-13 09:32:00
3:52 AM,37.4,23.0,56,30.71,-9999.0,West,11.5,-,N/A,,Clear,260,2013-05-13 09:52:00
4:12 AM,37.4,24.8,60,30.71,-9999.0,WNW,9.2,-,N/A,,Clear,290,2013-05-13 10:12:00
4:32 AM,37.4,24.8,60,30.71,-9999.0,NW,11.5,-,N/A,,Clear,310,2013-05-13 10:32:00
4:52 AM,37.4,24.8,60,30.71,-9999.0,NW,6.9,-,N/A,,Clear,310,2013-05-13 10:52:00
5:12 AM,37.4,24.8,60,30.71,-9999.0,WNW,8.1,-,N/A,,Clear,290,2013-05-13 11:12:00
5:32 AM,39.2,24.8,56,30.71,-9999.0,WNW,6.9,-,N/A,,Clear,300,2013-05-13 11:32:00
5:52 AM,39.2,24.8,56,30.71,-9999.0,NNW,9.2,-,N/A,,Clear,340,2013-05-13 11:52:00
6:12 AM,39.2,24.8,56,30.72,-9999.0,NW,4.6,-,N/A,,Clear,320,2013-05-13 12:12:00
6:32 AM,39.2,24.8,56,30.73,-9999.0,NW,5.8,-,N/A,,Clear,320,2013-05-13 12:32:00
6:52 AM,41.0,24.8,53,30.74,-9999.0,NNW,6.9,-,N/A,,Clear,330,2013-05-13 12:52:00
7:12 AM,41.0,24.8,53,30.74,-9999.0,North,3.5,-,N/A,,Clear,360,2013-05-13 13:12:00
7:32 AM,42.8,26.6,53,30.74,-9999.0,North,5.8,-,N/A,,Clear,10,2013-05-13 13:32:00
7:52 AM,41.0,24.8,53,30.75,-9999.0,South,3.5,-,N/A,,Clear,190,2013-05-13 13:52:00
8:12 AM,41.0,24.8,53,30.75,-9999.0,Calm,Calm,-,N/A,,Clear,0,2013-05-13 14:12:00
8:32 AM,42.8,24.8,49,30.75,-9999.0,Calm,Calm,-,N/A,,Clear,0,2013-05-13 14:32:00
8:52 AM,41.0,26.6,57,30.76,-9999.0,SSW,3.5,-,N/A,,Clear,210,2013-05-13 14:52:00
9:12 AM,41.0,26.6,57,30.76,-9999.0,SW,3.5,-,N/A,,Clear,220,2013-05-13 15:12:00
9:32 AM,42.8,28.4,57,30.76,-9999.0,SW,5.8,-,N/A,,Clear,220,2013-05-13 15:32:00
9:52 AM,42.8,28.4,57,30.76,-9999.0,SW,5.8,-,N/A,,Clear,230,2013-05-13 15:52:00
10:12 AM,44.6,28.4,53,30.76,-9999.0,SW,4.6,-,N/A,,Clear,230,2013-05-13 16:12:00
10:32 AM,44.6,28.4,53,30.76,-9999.0,West,9.2,-,N/A,,Clear,260,2013-05-13 16:32:00
10:52 AM,46.4,28.4,50,30.77,-9999.0,SSW,4.6,-,N/A,,Clear,210,2013-05-13 16:52:00
11:12 AM,46.4,28.4,50,30.77,-9999.0,SSW,3.5,-,N/A,,Clear,210,2013-05-13 17:12:00
11:32 AM,48.2,28.4,46,30.77,-9999.0,SW,4.6,-,N/A,,Clear,220,2013-05-13 17:32:00
11:52 AM,48.2,28.4,46,30.77,-9999.0,West,5.8,-,N/A,,Mostly Cloudy,280,2013-05-13 17:52:00
12:12 PM,46.4,28.4,50,30.77,-9999.0,Calm,Calm,-,N/A,,Overcast,0,2013-05-13 18:12:00
12:32 PM,48.2,28.4,46,30.76,-9999.0,Calm,Calm,-,N/A,,Scattered Clouds,0,2013-05-13 18:32:00
12:52 PM,50.0,26.6,40,30.76,-9999.0,SE,3.5,-,N/A,,Mostly Cloudy,140,2013-05-13 18:52:00
1:12 PM,50.0,24.8,37,30.76,-9999.0,WSW,10.4,16.1,N/A,,Overcast,250,2013-05-13 19:12:00
1:32 PM,48.2,23.0,37,30.75,-9999.0,West,10.4,-,N/A,,Overcast,260,2013-05-13 19:32:00
2:32 PM,50.0,26.6,40,30.73,-9999.0,South,10.4,-,N/A,,Overcast,170,2013-05-13 20:32:00
2:52 PM,50.0,26.6,40,30.73,-9999.0,South,12.7,23.0,N/A,,Overcast,180,2013-05-13 20:52:00
3:12 PM,50.0,26.6,40,30.73,-9999.0,South,20.7,-,N/A,,Overcast,190,2013-05-13 21:12:00
3:32 PM,46.4,28.4,50,30.73,-9999.0,South,21.9,27.6,N/A,,Mostly Cloudy,180,2013-05-13 21:32:00
3:52 PM,44.6,28.4,53,30.73,-9999.0,South,11.5,-,N/A,,Overcast,170,2013-05-13 21:52:00
4:12 PM,46.4,26.6,46,30.74,-9999.0,Calm,Calm,-,N/A,,Overcast,0,2013-05-13 22:12:00
4:32 PM,44.6,28.4,53,30.74,-9999.0,East,8.1,-,N/A,,Overcast,80,2013-05-13 22:32:00
4:52 PM,44.6,28.4,53,30.74,-9999.0,Calm,Calm,-,N/A,,Overcast,0,2013-05-13 22:52:00
5:32 PM,42.8,30.2,61,30.74,-9999.0,SSE,10.4,21.9,N/A,,Overcast,160,2013-05-13 23:32:00
6:12 PM,44.6,26.6,49,30.72,-9999.0,West,17.3,24.2,N/A,,Overcast,280,2013-05-14 00:12:00
6:32 PM,44.6,28.4,53,30.71,-9999.0,NW,13.8,18.4,N/A,,Overcast,310,2013-05-14 00:32:00
6:52 PM,42.8,30.2,61,30.71,-9999.0,WNW,6.9,-,N/A,,Overcast,300,2013-05-14 00:52:00
7:12 PM,44.6,28.4,53,30.71,-9999.0,NW,6.9,-,N/A,,Overcast,310,2013-05-14 01:12:00
7:32 PM,42.8,28.4,57,30.71,-9999.0,WNW,5.8,-,N/A,,Unknown,290,2013-05-14 01:32:00
7:52 PM,42.8,28.4,57,30.71,-9999.0,West,13.8,-,N/A,,Scattered Clouds,260,2013-05-14 01:52:00
8:12 PM,42.8,28.4,57,30.71,-9999.0,WSW,10.4,-,N/A,,Scattered Clouds,250,2013-05-14 02:12:00
8:32 PM,42.8,28.4,57,30.71,-9999.0,West,11.5,-,N/A,,Clear,260,2013-05-14 02:32:00
8:52 PM,41.0,28.4,61,30.71,-9999.0,SW,12.7,-,N/A,,Clear,230,2013-05-14 02:52:00
9:12 PM,41.0,30.2,65,30.71,-9999.0,WSW,11.5,-,N/A,,Scattered Clouds,240,2013-05-14 03:12:00
9:32 PM,41.0,28.4,61,30.71,-9999.0,WSW,16.1,-,N/A,,Clear,240,2013-05-14 03:32:00
9:52 PM,41.0,28.4,61,30.71,-9999.0,WSW,17.3,-,N/A,,Clear,250,2013-05-14 03:52:00
10:12 PM,41.0,28.4,61,30.71,-9999.0,WSW,18.4,-,N/A,,Scattered Clouds,240,2013-05-14 04:12:00
10:32 PM,41.0,30.2,65,30.70,-9999.0,WSW,20.7,-,N/A,,Clear,240,2013-05-14 04:32:00
10:52 PM,41.0,30.2,65,30.70,-9999.0,WSW,18.4,-,N/A,,Clear,240,2013-05-14 04:52:00
11:12 PM,41.0,30.2,65,30.69,-9999.0,SW,17.3,-,N/A,,Clear,230,2013-05-14 05:12:00
11:32 PM,39.2,30.2,70,30.69,-9999.0,SW,16.1,-,N/A,,Clear,230,2013-05-14 05:32:00
11:52 PM,39.2,30.2,70,30.69,-9999.0,WSW,18.4,-,N/A,,Clear,250,2013-05-14 05:52:00